Temperature
15 15 15 15 15 15 15 15 15 15 15 16 16 16 16 16 15 15 15 16 16 16 16 16 16 16 16 16 16 16 16 15 15 15 15 15 15 14
15 15 15 15 15 15 15 15 14 14 15 15 16 16 16 15 15 15 15 15 15 15 15 15 16 16 16 16 15 15 15 15 15 15 15 15 14 14
15 15 15 15 14 14 14 14 14 14 14 15 15 15 15 15 15 15 15 15 15 15 15 15 15 15 15 15 15 15 15 15 15 15 15 14 14 14
15 15 15 15 14 14 14 14 14 14 14 14 15 15 15 15 15 15 15 15 15 15 15 15 15 15 15 15 15 15 15 15 15 15 14 14 14 14
15 15 15 15 14 14 14 14 14 14 14 14 14 14 14 14 14 14 14 14 14 14 15 15 15 15 15 15 15 15 15 15 15 15 14 14 14 14
15 15 15 15 15 14 14 14 14 14 14 14 14 14 14 14 14 14 14 14 14 14 14 14 15 15 15 15 15 15 15 14 14 14 14 14 14 14
15 15 15 15 15 14 14 14 14 14 14 14 14 14 14 14 14 14 14 14 13 13 13 14 14 14 15 15 15 15 15 14 14 14 14 14 14 14
15 15 15 15 15 15 14 14 14 14 14 14 13 13 13 13 13 13 13 13 13 13 13 13 13 14 14 14 14 14 14 14 14 14 14 14 14 14
15 15 15 14 14 14 14 14 14 14 14 14 13 13 13 13 13 13 13 13 13 13 13 13 13 13 13 13 13 13 14 14 14 14 14 14 13 13
14 14 14 14 14 14 14 14 14 14 14 14 13 13 13 13 13 13 13 12 13 13 13 13 13 13 13 13 13 13 13 13 13 13 13 13 13 13
14 14 14 14 14 14 14 14 14 14 14 14 14 13 13 13 13 13 13 12 12 12 12 12 12 12 13 13 13 13 12 12 12 13 13 13 13 13
13 13 14 14 14 14 14 14 14 14 14 13 13 13 13 13 13 13 12 12 12 12 12 12 12 12 12 12 12 12 12 12 12 12 12 12 12 12
13 13 13 13 14 14 14 14 14 13 13 13 13 13 13 13 12 12 12 12 12 12 12 12 12 12 12 12 12 12 12 12 12 12 12 12 12 12
12 12 12 13 13 13 13 13 13 13 13 13 13 12 12 12 12 12 12 12 12 12 12 12 11 11 11 11 11 11 11 11 11 11 11 11 11 11
12 12 12 12 12 12 12 12 12 12 12 12 12 12 12 12 12 12 12 12 11 11 11 11 11 11 11 11 11 11 11 11 11 11 11 11 11 11
11 11 11 11 12 12 12 12 12 12 11 11 11 11 11 11 11 11 11 11 11 11 11 11 10 10 10 10 10 10 10 10 10 10 10 10 10 10
11 11 11 11 11 11 11 11 11 11 11 11 10 10 11 11 10 10 10 10 10 10 10 10 10 10 10 10 10 10 9 9 9 9 10 10 10 9
10 10 10 10 10 10 10 10 10 10 10 10 10 10 10 10 9 10 9 9 9 9 9 9 9 10 10 9 9 9 9 9 9 9 9 9 9 9
10 10 9 9 9 9 9 9 9 9 9 9 9 9 9 9 9 9 9 9 9 8 8 8 8 8 8 8 8 8 8 8 8 8 8 8 8 8
9 9 9 9 9 9 9 8 9 9 9 9 9 9 9 8 8 8 8 8 8 8 7 7 7 7 7 7 7 7 7 7 7 7 7 7 7 7
8 8 8 8 8 8 8 8 8 8 8 8 8 8 8 7 7 7 7 7 7 7 7 7 7 7 7 7 7 7 6 6 6 6 6 7 7 6
8 8 8 8 8 8 8 8 8 8 8 8 8 7 7 7 6 6 6 6 6 6 6 6 6 7 7 7 6 6 6 6 6 6 6 5 5 5
9 9 9 9 9 8 8 8 7 7 7 7 7 6 6 6 6 6 6 6 6 6 6 6 6 6 6 6 6 6 6 6 5 5 5 5 5 4
Wind_Speed
1 2 2 3 3 4 4 4 4 4 5 5 3 2 3 4 10 17 15 19 19 18 16 14 12 10 8 6 4 3 2 2 3 3 3 3 3 3
1 2 3 2 2 3 3 3 4 5 4 4 4 2 1 2 6 11 13 19 23 21 19 17 15 13 11 9 7 6 5 4 4 4 3 3 3 3
3 3 3 3 3 3 3 4 4 4 5 4 3 2 2 2 3 7 8 10 16 21 21 20 18 16 14 12 11 9 8 7 6 6 5 4 4 3
2 2 3 3 4 3 3 4 4 5 5 5 4 3 4 4 3 4 4 7 10 19 23 22 20 18 17 15 14 13 12 11 9 8 7 7 6 6
3 3 3 1 1 2 3 4 4 4 4 4 4 2 2 1 2 2 3 3 5 10 20 21 20 20 19 18 17 16 15 14 13 12 10 9 9 8
2 1 2 3 3 2 0 1 1 2 2 3 3 2 2 1 1 2 3 3 3 3 7 13 17 20 20 20 20 19 19 18 17 15 14 13 11 10
0 3 6 6 6 4 3 3 3 1 0 1 1 1 1 2 2 2 3 3 3 2 2 4 7 9 13 19 21 21 21 21 20 18 17 16 14 13
1 2 5 6 5 4 3 2 2 2 1 1 0 1 1 2 2 2 2 1 2 1 1 3 3 5 6 10 15 20 22 22 21 20 19 18 16 15
2 0 1 4 3 2 3 4 3 3 2 0 1 0 0 1 1 1 2 2 3 1 0 3 2 4 3 6 8 12 16 17 19 19 19 18 17 16
3 2 2 3 4 4 2 1 1 4 5 2 1 2 2 2 2 1 2 1 1 1 2 2 2 2 2 4 5 6 9 11 13 15 17 17 17 17
3 5 5 5 6 6 4 4 3 2 3 2 2 2 2 2 2 1 1 0 2 2 2 1 2 2 2 2 3 5 7 9 11 12 13 14 15 15
3 5 8 7 6 7 5 5 4 3 2 1 0 0 2 2 2 1 1 0 1 2 1 1 2 1 2 1 0 2 4 6 8 10 11 11 11 9
3 4 4 7 7 7 6 5 3 4 3 3 3 3 2 1 1 1 0 1 0 1 0 1 1 1 1 3 2 1 1 2 3 4 7 9 9 9
5 4 4 6 7 7 6 6 7 6 4 4 4 4 4 4 4 3 4 3 2 1 1 1 1 1 2 2 3 3 2 2 2 1 2 3 6 10
5 5 5 7 6 5 6 8 7 5 5 5 5 4 3 4 4 4 5 5 4 3 3 2 1 1 1 1 3 3 3 3 1 2 1 1 2 2
4 5 6 8 7 7 6 6 5 6 5 4 4 3 4 4 4 4 4 4 3 3 4 5 3 1 1 2 2 3 3 3 3 3 2 2 2 2
5 5 6 6 7 7 7 7 7 7 6 5 4 4 4 4 4 4 3 3 3 4 4 4 5 5 3 2 2 3 3 3 3 3 3 3 3 2
9 7 7 7 7 7 7 7 7 7 7 6 6 5 5 4 4 4 4 4 4 4 4 5 5 5 4 5 6 4 4 4 4 4 3 3 4 3
9 8 7 7 7 7 7 6 6 6 6 6 6 6 6 5 5 5 5 5 4 4 4 4 5 5 5 4 5 8 5 4 5 4 4 3 3 3
7 7 7 7 7 6 6 6 6 6 6 6 6 6 6 5 5 5 5 5 4 4 4 4 4 4 2 3 3 3 6 4 4 4 5 4 3 2
6 6 6 6 6 6 6 5 5 5 6 5 5 6 5 5 5 5 5 6 5 4 5 4 4 4 3 3 3 4 4 7 6 3 4 4 4 4
5 5 5 6 6 6 5 5 5 5 6 5 5 5 5 4 5 5 5 5 5 5 5 4 5 4 4 4 3 4 5 5 6 8 7 5 2 3
5 4 5 5 5 5 5 5 6 5 5 5 5 5 4 4 4 4 5 5 5 5 5 5 5 4 4 4 4 4 7 6 5 5 4 6 4 3
Wind_Direction
269 259 227 225 215 217 215 198 195 221 237 234 230 217 194 196 190 191 188 196 199 201 202 204 206 208 211 217 225 239 265 295 308 311 312 321 327 342
208 260 258 247 237 219 221 216 202 202 232 234 221 219 189 189 185 202 205 201 202 202 203 205 207 210 213 217 222 229 240 257 275 282 282 296 315 331
242 224 231 232 227 221 220 222 219 206 227 250 233 212 192 190 203 235 228 195 201 205 205 206 208 210 213 217 223 228 234 242 253 262 266 271 277 289
241 245 246 224 217 221 222 229 226 215 213 240 245 215 210 205 205 230 239 212 205 209 208 208 210 212 215 219 224 228 232 237 243 250 256 259 263 267
212 219 229 200 216 212 221 232 233 235 217 224 248 227 208 200 216 247 259 265 246 212 207 211 214 216 218 222 225 229 232 236 240 244 248 253 258 260
204 195 91 74 59 26 299 241 240 242 232 228 242 242 206 183 187 232 257 254 262 237 210 213 218 222 225 226 229 231 233 235 238 241 243 246 250 253
342 90 93 98 89 67 55 36 27 14 292 236 247 231 211 183 213 212 237 258 263 249 235 220 212 219 225 232 234 235 234 235 237 238 240 242 245 248
6 112 146 151 139 142 147 132 89 47 32 22 323 244 249 223 220 209 217 236 265 275 233 248 217 230 231 227 232 233 234 234 236 237 239 240 242 244
327 3 94 103 134 172 196 211 210 196 198 20 10 334 295 181 173 218 222 219 236 246 206 270 252 251 255 257 253 237 233 235 238 239 240 240 241 243
326 1 62 80 50 35 17 289 198 185 201 203 84 69 69 92 132 173 200 224 257 222 148 267 285 266 269 276 272 244 239 245 247 247 245 244 242 243
15 36 49 69 47 31 10 355 13 64 149 136 105 118 124 112 100 77 78 347 299 264 174 222 279 284 282 269 258 235 244 252 257 257 255 250 246 244
53 64 60 62 47 29 13 21 32 13 24 68 95 233 212 213 215 232 244 264 301 314 174 201 291 328 326 310 242 234 254 263 265 265 264 259 249 237
51 61 55 50 48 36 34 45 28 346 356 36 58 42 40 64 112 277 300 139 359 310 253 166 323 349 334 324 315 272 245 272 268 270 267 261 248 230
51 56 62 49 46 42 44 32 16 7 22 47 52 43 31 27 23 11 20 29 59 68 47 85 30 10 354 334 319 327 312 288 291 291 287 259 251 245
61 64 58 45 39 47 47 35 25 28 43 51 49 42 31 24 23 15 14 21 22 33 48 50 61 10 360 308 311 318 325 324 338 331 317 247 229 225
54 61 53 47 47 46 42 37 43 44 48 51 46 38 33 31 26 19 13 4 14 6 16 25 13 1 321 295 297 308 322 325 339 332 320 307 300 269
40 52 48 44 44 39 38 36 36 35 38 34 42 40 37 36 24 15 13 13 26 12 0 353 349 333 285 277 320 336 349 350 343 345 345 328 314 310
53 54 51 47 45 41 39 36 33 29 27 33 38 36 31 28 23 19 22 24 22 17 10 1 359 357 359 23 33 25 14 1 350 351 356 341 333 357
53 50 47 44 41 40 38 36 32 26 26 32 33 28 24 23 26 26 22 21 18 13 10 13 19 24 19 359 358 31 18 354 354 357 356 348 331 356
47 47 44 40 37 35 31 28 29 29 28 31 30 26 22 21 23 20 19 14 6 8 14 19 23 17 2 316 318 349 19 24 11 359 346 340 346 71
47 45 40 36 31 29 24 21 30 34 30 31 30 25 19 16 15 12 12 12 15 16 16 3 338 324 310 349 11 360 2 35 51 37 355 353 350 359
47 48 42 34 28 22 17 17 28 36 31 29 22 18 12 9 9 10 13 14 11 11 7 350 346 1 22 28 19 9 6 15 47 62 58 52 21 0
41 46 53 40 26 17 14 15 28 37 32 23 12 4 360 0 7 16 15 16 14 12 6 357 355 9 20 24 36 36 23 14 12 20 21 18 18 352
Height
1527 1528 1528 1529 1530 1531 1532 1533 1535 1535 1535 1536 1538 1538 1539 1540 1542 1543 1544 1545 1546 1546 1547 1548 1548 1549 1549 1550 1550 1549 1549 1549 1548 1548 1547 1547 1546 1546
1524 1525 1526 1526 1526 1527 1528 1529 1530 1531 1531 1532 1533 1534 1535 1536 1537 1539 1540 1541 1542 1543 1544 1545 1546 1546 1547 1547 1547 1547 1547 1546 1546 1546 1545 1545 1544 1544
1522 1523 1523 1523 1523 1524 1525 1525 1526 1527 1527 1528 1529 1530 1531 1532 1533 1535 1537 1537 1538 1539 1540 1541 1542 1543 1544 1544 1545 1545 1545 1544 1544 1543 1543 1542 1542 1541
1520 1520 1521 1521 1521 1521 1521 1522 1522 1523 1524 1524 1525 1526 1527 1528 1529 1530 1531 1532 1533 1534 1536 1537 1538 1539 1540 1541 1541 1542 1542 1542 1542 1541 1541 1540 1539 1539
1519 1519 1519 1519 1519 1519 1519 1519 1519 1520 1520 1520 1520 1522 1522 1523 1524 1526 1526 1528 1529 1530 1531 1532 1534 1535 1536 1537 1538 1538 1539 1539 1539 1539 1538 1538 1537 1536
1519 1519 1518 1518 1517 1517 1517 1517 1517 1517 1517 1517 1517 1518 1518 1519 1520 1521 1522 1523 1524 1525 1526 1527 1529 1530 1531 1532 1533 1534 1535 1535 1535 1535 1535 1535 1534 1533
1518 1518 1517 1517 1516 1516 1516 1516 1516 1516 1516 1515 1515 1515 1516 1516 1516 1517 1517 1518 1519 1520 1521 1522 1523 1524 1526 1527 1528 1529 1530 1530 1531 1531 1531 1531 1531 1530
1516 1516 1516 1516 1516 1516 1516 1515 1515 1515 1515 1515 1514 1514 1514 1514 1514 1514 1514 1514 1515 1517 1517 1518 1518 1519 1520 1521 1522 1524 1525 1525 1526 1526 1526 1526 1526 1526
1514 1515 1515 1515 1515 1516 1516 1516 1515 1515 1515 1515 1514 1514 1514 1513 1513 1512 1512 1512 1513 1513 1513 1513 1514 1515 1516 1516 1517 1518 1519 1520 1521 1521 1521 1521 1521 1521
1512 1513 1513 1514 1515 1515 1515 1515 1515 1515 1515 1515 1514 1514 1513 1513 1513 1512 1512 1511 1511 1511 1511 1510 1510 1510 1511 1512 1512 1513 1514 1514 1515 1515 1516 1516 1515 1515
1510 1511 1511 1512 1513 1514 1514 1515 1515 1515 1515 1515 1514 1514 1513 1513 1512 1512 1511 1511 1510 1510 1510 1509 1509 1508 1508 1508 1509 1509 1510 1510 1510 1510 1510 1510 1510 1509
1508 1509 1510 1511 1512 1513 1513 1514 1514 1515 1514 1514 1514 1513 1513 1513 1512 1512 1511 1511 1510 1510 1509 1509 1508 1508 1507 1507 1507 1507 1507 1507 1507 1506 1506 1505 1505 1504
1507 1508 1509 1510 1511 1512 1512 1513 1513 1514 1514 1514 1513 1513 1513 1513 1512 1512 1512 1511 1511 1510 1510 1509 1508 1507 1507 1507 1506 1505 1505 1504 1504 1503 1502 1502 1501 1500
1507 1508 1509 1510 1510 1511 1512 1513 1513 1513 1513 1513 1513 1513 1513 1513 1512 1512 1512 1511 1510 1510 1509 1509 1508 1507 1506 1505 1505 1504 1504 1503 1501 1500 1499 1498 1498 1497
1508 1509 1509 1510 1511 1512 1512 1513 1513 1513 1513 1513 1513 1513 1513 1513 1512 1512 1511 1511 1510 1510 1509 1508 1507 1506 1506 1505 1504 1503 1502 1501 1500 1499 1497 1496 1495 1494
1510 1510 1510 1511 1512 1513 1513 1513 1513 1513 1513 1513 1513 1513 1513 1513 1512 1512 1511 1510 1510 1509 1509 1508 1507 1506 1505 1504 1503 1502 1501 1500 1498 1497 1495 1494 1493 1492
1512 1512 1512 1513 1513 1514 1514 1514 1514 1514 1514 1514 1514 1514 1513 1513 1512 1512 1511 1510 1510 1509 1508 1507 1506 1505 1504 1503 1502 1501 1499 1498 1497 1495 1493 1492 1491 1490
1514 1514 1514 1515 1515 1515 1515 1516 1516 1515 1515 1515 1515 1514 1514 1513 1512 1512 1511 1510 1509 1509 1507 1506 1505 1503 1503 1502 1502 1500 1498 1496 1495 1493 1491 1490 1489 1488
1517 1517 1517 1517 1517 1517 1517 1517 1517 1517 1516 1516 1515 1514 1514 1513 1513 1512 1511 1510 1509 1508 1507 1506 1504 1502 1501 1501 1500 1499 1497 1495 1493 1491 1490 1488 1487 1485
1520 1520 1520 1520 1519 1519 1519 1518 1518 1517 1517 1516 1515 1514 1514 1513 1512 1512 1511 1510 1509 1508 1507 1505 1504 1502 1501 1501 1499 1498 1496 1494 1492 1490 1488 1486 1485 1484
1522 1522 1521 1521 1521 1520 1520 1519 1519 1518 1517 1516 1515 1514 1514 1513 1512 1512 1511 1510 1509 1508 1506 1505 1504 1503 1501 1500 1499 1497 1495 1493 1491 1489 1486 1485 1483 1482
1524 1523 1523 1522 1521 1521 1520 1520 1519 1518 1517 1516 1515 1515 1514 1513 1513 1512 1511 1510 1509 1508 1506 1505 1504 1502 1501 1500 1498 1497 1495 1493 1491 1489 1486 1485 1483 1481
1525 1524 1523 1523 1522 1521 1520 1520 1519 1518 1517 1516 1516 1515 1515 1514 1513 1512 1511 1510 1509 1508 1506 1505 1504 1503 1501 1500 1499 1497 1495 1493 1491 1489 1487 1485 1484 1482